Location: Unspecified
(52.4292°N, 19.3359°E)
Time: 01:18:20
(UTC+02:00)

Vanguard 1 Rocket - Pass Details

Date: 23 May 2024
Orbit: 649 x 4221 km, 34.3° (Epoch: 13 June)

Event Time Altitude Azimuth Distance (km) Brightness Sun altitude
Rises 12:43:40 0° 256° (WSW) 7,194 12.1 58.3°
Reaches altitude 10° 12:50:01 10° 247° (WSW) 5,548 11.7 58.2°
Maximum altitude 13:01:29 28° 197° (SSW) 2,976 11.3 58.0°
Drops below altitude 10° 13:08:28 10° 142° (SE) 3,284 10.7 57.8°
Sets 13:11:09 0° 129° (SE) 3,915 10.8 57.7°
